Location: Unspecified
(45.4057°N, 0.0000°E)
Time: 02:32:58
(UTC+00:00)

Meteor 1-27 Rocket - Visible Passes

Search period start: 04 April 2026 00:00
Search period end: 14 April 2026 00:00
Orbit: 830 x 908 km, 81.3° (Epoch: 29 March)

Date Brightness Start Highest point End Pass type
(mag) Time Alt. Az. Time Alt. Az. Time Alt. Az.
4 Apr 6.3 04:02:51 10° SE 04:07:14 23° E 04:11:39 10° NE visible
5 Apr 6.2 03:56:06 10° SE 04:00:32 23° E 04:05:01 10° NE visible
6 Apr 6.2 03:49:21 10° SE 03:53:50 24° E 03:58:23 10° NE visible
7 Apr 6.1 03:42:37 10° SE 03:47:10 24° E 03:51:44 10° NE visible
8 Apr 6.0 03:35:52 10° SE 03:40:28 25° E 03:45:07 10° NE visible
9 Apr 6.0 03:29:08 10° SE 03:33:46 25° E 03:38:28 10° NE visible
10 Apr 5.9 03:22:24 10° SE 03:27:05 26° E 03:31:49 10° NNE visible
11 Apr 5.9 03:15:39 10° SE 03:20:23 26° E 03:25:10 10° NNE visible
12 Apr 5.8 03:08:55 10° SE 03:13:42 27° E 03:18:32 10° NNE visible
13 Apr 5.7 03:02:12 10° SE 03:07:00 27° E 03:11:53 10° NNE visible
13 Apr 4.2 04:44:21 10° SSW 04:50:00 48° WNW 04:55:45 10° N visible
